Location: Stockholm
(59.3333°N, 18.0500°E)
Time: 17:37:18
(UTC+02:00)

ISS - Pass Details

Date: 30 January 2021
Orbit: 417 x 422 km, 51.6° (Epoch: 18 May)

Event Time Altitude Azimuth Distance (km) Brightness Sun altitude
Rises 18:36:20 0° 261° (W) 2,376 1.7 -19.4°
Reaches altitude 10° 18:38:53 10° 241° (WSW) 1,511 0.0 -19.7°
Maximum altitude 18:41:14 18° 197° (SSW) 1,125 -1.4 -20.0°
Enters shadow 18:42:06 16° 178° (S) 1,183 -1.5 -20.1°
